Location: Newark
(48.2308°N, 120.8549°W)
Time: 18:39:20
(UTC+00:00)

Altair - Visible Passes

Search period start: 06 June 2020 00:00
Search period end: 16 June 2020 00:00
Orbit: 1501 x 1683 km, 47.2° (Epoch: 06 June)

Date Brightness Start Highest point End Pass type
(mag) Time Alt. Az. Time Alt. Az. Time Alt. Az.
06 Jun 7.6 06:15:43 10° WSW 06:25:41 81° SSE 06:35:54 10° E visible
06 Jun 7.6 08:20:30 10° W 08:30:37 81° SSW 08:40:48 10° ESE visible
06 Jun 7.8 10:25:23 10° WNW 10:34:55 48° SW 10:44:23 10° SE visible
07 Jun 7.6 05:50:33 10° WSW 06:00:28 80° SSE 06:10:40 10° E visible
07 Jun 7.6 07:55:18 10° W 08:05:24 82° S 08:15:36 10° ESE visible
07 Jun 7.8 10:00:09 10° WNW 10:09:47 51° SW 10:19:22 10° SE visible
08 Jun 7.6 05:25:23 10° WSW 05:35:16 78° SSE 05:45:26 10° E visible
08 Jun 7.6 07:30:06 10° W 07:40:11 83° S 07:50:24 10° ESE visible
08 Jun 7.7 09:34:56 10° WNW 09:44:38 53° SSW 09:54:20 10° SE visible
09 Jun 7.6 05:00:15 10° WSW 05:10:04 76° SSE 05:20:12 10° E visible
09 Jun 7.6 07:04:54 10° W 07:14:57 84° S 07:25:11 10° ESE visible
09 Jun 7.7 09:09:43 10° WNW 09:19:29 56° SSW 09:29:16 10° SE visible
09 Jun 8.5 11:15:37 10° W 11:22:42 22° SW 11:29:48 10° S visible
10 Jun 7.6 04:35:06 10° WSW 04:44:53 74° SSE 04:54:59 10° E visible
10 Jun 7.6 06:39:42 10° W 06:49:43 85° S 06:59:57 10° E visible
10 Jun 7.6 08:44:30 10° WNW 08:54:19 59° SSW 09:04:11 10° SE visible
10 Jun 8.4 10:50:11 10° W 10:57:40 24° SW 11:05:08 10° S visible
11 Jun 7.6 06:14:30 10° W 06:24:30 85° S 06:34:44 10° E visible
11 Jun 7.6 08:19:18 10° WNW 08:29:09 61° SSW 08:39:05 10° SE visible
11 Jun 8.4 10:24:48 10° W 10:32:36 26° SW 10:40:25 10° S visible
12 Jun 7.6 05:49:19 10° W 05:59:17 86° S 06:09:30 10° E visible
12 Jun 7.6 07:54:06 10° WNW 08:03:59 64° SSW 08:13:58 10° SE visible
12 Jun 8.3 09:59:27 10° W 10:07:33 28° SW 10:15:39 10° S visible
13 Jun 7.6 05:24:08 10° W 05:34:03 86° S 05:44:16 10° E visible
13 Jun 7.6 07:28:54 10° WNW 07:38:48 67° SSW 07:48:50 10° SE visible
13 Jun 8.2 09:34:08 10° WNW 09:42:28 31° SW 09:50:50 10° S visible
14 Jun 7.7 04:58:57 10° W 05:08:50 86° S 05:19:02 10° E visible
14 Jun 7.6 07:03:44 10° WNW 07:13:37 69° SSW 07:23:41 10° ESE visible
14 Jun 8.2 09:08:50 10° WNW 09:17:24 33° SW 09:24:03 16° S visible
15 Jun 7.7 04:33:47 10° W 04:43:37 85° S 04:53:48 10° E visible
15 Jun 7.6 06:38:32 10° WNW 06:48:26 71° SSW 06:58:32 10° ESE visible
15 Jun 8.1 08:43:33 10° WNW 08:52:18 35° SW 08:57:52 21° S visible
